Lid_Strength_Index
-2 -2 -1 -1 -1 -1 -1 -1 -1 -1 -1 -1 -1 -1 -0 0 1 4 6 3 3 2 3 5 5 6 9 9 9 9 12 12 11 10 10 8 7 6 6 6 6 5 5 4 2
-2 -2 -1 -1 -1 -1 -1 -1 -1 -1 -1 -1 -0 -1 -0 0 2 4 2 1 1 2 5 6 7 8 10 10 10 11 12 11 8 8 9 8 7 6 7 6 7 6 4 3 2
-1 -1 -1 -1 -1 -1 -1 -1 -1 -1 -1 -1 -1 -0 -0 0 4 4 0 2 2 2 4 5 6 8 11 10 10 11 12 9 8 8 9 8 8 5 7 8 6 6 5 4 4
-1 -1 -1 -1 -1 -1 -1 -1 -1 -1 -1 -1 -1 -1 0 2 10 2 -1 0 2 3 4 6 7 10 11 12 11 13 10 9 8 9 10 10 8 7 6 7 5 4 4 4 4
-1 -1 -1 -1 -1 -1 -1 -1 -1 -1 -1 -1 -1 -1 1 5 5 1 -1 -1 2 4 5 6 8 8 11 11 12 13 11 10 9 10 10 10 11 9 7 6 6 4 4 4 4
-1 -1 -1 -1 -1 -1 -1 -1 -1 -1 -1 -1 -1 -1 3 9 2 0 -0 0 1 4 5 6 7 7 8 10 12 11 11 11 10 10 11 11 11 11 9 6 6 4 5 4 4
-1 -1 -1 -1 -1 -1 -1 -1 -1 -1 -1 -1 -1 0 4 6 1 1 -0 1 1 3 6 5 5 7 9 10 9 10 13 11 11 10 11 11 13 13 10 8 8 7 5 4 4
-1 -1 -1 -1 -1 -1 -1 -1 -1 -1 -1 -1 -1 1 7 1 -0 0 0 1 0 3 5 5 5 7 9 10 11 13 13 15 12 11 11 12 14 11 10 11 10 8 6 5 4
-1 -1 -1 -1 -1 -1 -1 -1 -1 -1 -1 -1 1 3 7 0 3 1 1 3 2 3 5 5 6 9 10 14 15 14 16 15 12 10 12 13 14 10 9 11 11 10 8 5 5
-1 -1 -1 -1 -1 -1 -1 -1 -1 -1 -0 0 1 6 4 6 3 2 1 3 4 5 7 7 8 11 11 13 17 16 15 14 13 12 12 14 14 12 11 11 11 11 10 8 5
-1 -1 -1 -1 -1 -1 -0 1 4 5 4 6 6 6 5 3 1 3 2 5 5 7 11 11 12 14 12 12 10 12 14 13 12 12 14 14 14 13 12 12 11 11 10 9 6
-1 -1 -1 -1 -1 -1 0 4 4 3 8 4 4 4 3 3 7 5 2 7 8 12 12 13 14 10 9 11 12 13 14 13 11 13 14 15 14 12 12 12 11 11 11 10 9
-0 -1 -1 -1 -1 0 2 3 -0 1 7 6 5 5 5 4 7 7 4 6 9 11 12 13 12 10 10 11 13 13 14 14 13 15 15 17 15 13 11 11 11 11 10 10 10
-0 -1 -1 -1 2 1 3 0 -0 0 11 10 8 6 5 5 8 4 3 6 9 11 11 11 11 13 12 12 11 15 11 13 14 16 18 16 18 15 12 12 11 11 11 11 10
-0 -1 -1 -1 3 4 2 -0 0 3 20 9 8 2 4 7 7 7 4 6 11 12 12 13 12 14 15 12 11 13 11 13 14 16 16 18 20 15 13 13 12 11 10 10 10
-0 -0 -1 1 1 1 -0 0 2 13 20 12 9 9 9 8 8 7 7 5 8 11 12 14 12 11 13 14 12 12 12 15 15 16 19 16 18 17 14 13 12 11 10 10 10
-0 -0 0 0 4 -0 0 4 13 17 10 13 12 10 10 11 10 9 10 11 13 16 16 16 15 12 12 15 15 14 17 20 20 21 21 16 18 16 14 13 12 11 10 10 10
-0 0 1 0 -0 -0 2 9 17 14 13 10 10 10 13 11 11 10 11 14 11 11 15 17 19 14 13 14 16 16 15 19 22 22 22 21 19 17 12 11 12 11 12 12 10
0 2 2 1 -0 1 7 14 15 12 10 10 11 13 13 11 11 11 12 13 11 10 15 16 16 13 12 12 13 16 18 13 19 23 22 21 18 15 14 14 14 13 13 13 12
4 5 4 0 -0 3 10 12 12 8 9 10 14 12 15 14 13 13 13 10 11 9 8 11 17 14 13 11 12 14 13 18 18 24 25 22 21 18 15 15 15 14 14 13 11
5 8 4 1 1 7 13 12 9 7 7 11 12 13 13 14 12 14 13 10 9 10 8 10 13 16 15 15 16 16 17 16 17 19 22 24 21 16 15 15 15 14 13 13 12
6 11 3 1 9 9 12 10 7 9 7 9 9 11 12 13 13 13 13 11 8 8 11 10 14 18 18 13 12 13 16 16 19 21 21 21 20 17 15 14 14 14 13 13 11
8 8 2 3 13 12 9 10 9 10 9 9 11 10 10 12 14 12 11 8 8 9 10 10 14 19 19 16 14 16 15 15 15 18 21 22 19 16 15 15 14 14 14 12 11
7 11 7 6 7 10 11 11 11 8 9 8 9 9 10 12 12 14 12 9 7 8 8 9 13 14 19 18 16 17 16 15 15 20 20 20 19 18 17 16 15 15 14 12 11
7 10 8 12 10 9 9 10 11 11 9 8 10 10 11 14 14 14 14 10 8 8 10 11 15 14 16 14 14 15 15 15 16 16 18 18 17 16 16 15 15 15 14 12 12
9 9 7 9 8 9 9 10 11 10 9 11 11 10 10 13 13 15 13 15 12 9 11 10 15 16 17 16 14 16 15 14 14 14 15 17 17 13 15 14 15 14 13 13 12
4 4 6 8 9 10 10 10 9 9 8 8 9 9 11 12 10 10 10 12 10 11 12 13 14 16 18 16 16 18 16 15 15 14 14 17 15 14 15 14 13 13 13 13 12